Red Bluff, CA

6:10 AM PST on December 11, 2019 (GMT -0800)
Red Bluff Municipal

Weather History for KRBL - October, 2019

Change the Weather History Date:

Tuesday, October 8, 2019

  Actual Average Record
Temperature  
Mean Temperature 69 °F -  
Max Temperature 87 °F 83 °F 100 °F (1971)
Min Temperature 51 °F 54 °F 42 °F (1941)
Cooling Degree Days 4    
Growing Degree Days 19 (Base 50)    
Moisture  
Dew Point 34 °F    
Average Humidity 30    
Maximum Humidity 57    
Minimum Humidity 4    
Precipitation  
Precipitation 0.00 in - - ()
Sea Level Pressure  
Sea Level Pressure 29.84 in    
Wind  
Wind Speed 7 mph (NW)    
Max Wind Speed 15 mph    
Max Gust Speed 23 mph    
Visibility 10 miles    
Events      
Averages and records for this station are not official NWS values.
T = Trace of Precipitation, MM = Missing Value Source: NWS Daily Summary

Daily Weather History Graph

Daily Weather History Graph

Search for Another Location

Airport or City:

Astronomy

Oct. 08, 2019 Rise Set
Actual Time 7:12 AM PDT 6:40 PM PDT
Civil Twilight 6:45 AM PDT 7:07 PM PDT
Nautical Twilight 6:13 AM PDT 7:38 PM PDT
Astronomical Twilight 5:42 AM PDT 8:10 PM PDT
Moon 4:42 PM PDT (10/8) 2:06 AM PDT (10/8)
Length of Visible Light 12h 22m
Length of Day
11h 27m
Waxing Gibbous, 78% of the Moon is Illuminated
Oct 8
Waxing Gibbous
Oct 13
Full
Oct 21
Last Quarter
Oct 27
New
Nov 4
First Quarter

Hourly Weather History & Observations

Time (PDT) Temp. Dew Point Humidity Pressure Visibility Wind Dir Wind Speed Gust Speed Precip Events Conditions
12:54 AM 57.0 °F 39.0 °F 51% 29.90 in 10.0 mi WNW 6.9 mph - N/A   Clear
1:54 AM 57.9 °F 37.0 °F 46% 29.89 in 10.0 mi NW 6.9 mph - N/A   Clear
2:54 AM 55.9 °F 36.0 °F 47% 29.89 in 10.0 mi NW 4.6 mph - N/A   Clear
3:54 AM 53.1 °F 37.0 °F 55% 29.87 in 10.0 mi NW 5.8 mph - N/A   Clear
4:54 AM 53.1 °F 37.0 °F 55% 29.87 in 10.0 mi NW 5.8 mph - N/A   Clear
5:54 AM 52.0 °F 37.0 °F 57% 29.87 in 10.0 mi NW 6.9 mph - N/A   Clear
6:54 AM 53.1 °F 37.9 °F 57% 29.87 in 10.0 mi NW 4.6 mph - N/A   Clear
7:54 AM 54.0 °F 39.0 °F 57% 29.88 in 10.0 mi NW 5.8 mph - N/A   Clear
8:54 AM 61.0 °F 39.9 °F 46% 29.89 in 10.0 mi NNW 6.9 mph - N/A   Clear
9:54 AM 69.1 °F 41.0 °F 36% 29.90 in 10.0 mi North 5.8 mph - N/A   Clear
10:54 AM 75.0 °F 39.0 °F 27% 29.89 in 10.0 mi North 3.5 mph - N/A   Clear
11:54 AM 79.0 °F 39.0 °F 24% 29.87 in 10.0 mi Variable 3.5 mph - N/A   Clear
12:54 PM 82.0 °F 41.0 °F 23% 29.85 in 10.0 mi Variable 3.5 mph - N/A   Clear
1:54 PM 82.9 °F 42.1 °F 24% 29.83 in 10.0 mi SE 4.6 mph - N/A   Clear
2:54 PM 84.9 °F 39.9 °F 20% 29.81 in 10.0 mi SE 5.8 mph - N/A   Clear
3:54 PM 87.1 °F 39.9 °F 19% 29.79 in 10.0 mi ESE 6.9 mph - N/A   Clear
4:54 PM 86.0 °F 41.0 °F 20% 29.77 in 10.0 mi SE 11.5 mph - N/A   Clear
5:54 PM 84.0 °F 39.9 °F 21% 29.75 in 10.0 mi SSE 9.2 mph - N/A   Clear
6:54 PM 78.1 °F 41.0 °F 27% 29.77 in 10.0 mi Calm Calm - N/A   Clear
7:54 PM 75.0 °F 39.0 °F 27% 29.78 in 10.0 mi Variable 3.5 mph - N/A   Clear
8:54 PM 75.0 °F 21.9 °F 14% 29.78 in 10.0 mi WNW 10.4 mph - N/A   Clear
9:54 PM 73.0 °F 7.0 °F 8% 29.79 in 10.0 mi WNW 12.7 mph 23.0 mph N/A   Clear
10:54 PM 70.0 °F 3.9 °F 7% 29.80 in 10.0 mi WNW 15.0 mph 21.9 mph N/A   Clear
11:54 PM 66.9 °F 8.1 °F 10% 29.81 in 10.0 mi NNW 9.2 mph - N/A   Clear